    Orbital elements:
    2006 GQ2                                                 Earth MOID = 0.1269 AU
    Epoch 2006 Mar. 6.0 TT = JDT 2453800.5                  MPC
    M  32.61874              (2000.0)            P               Q
    n   0.67118496     Peri.   64.40315     +0.22303991     -0.96907252
    a   1.2919367      Node    13.99296     +0.66144680     +0.07087530
    e   0.4669691      Incl.   25.89512     +0.71605958     +0.23637923
    P   1.47           H   18.2           G   0.15           U   8
    Residuals in seconds of arc
    060406 703  0.1-  0.4+    060406 D35  0.3-  1.2+    060407 673  0.1-  0.1-
    060406 703  0.1-  0.2+    060406 D35  0.4-  0.8-    060407 673  0.1-  0.0
    060406 703  0.3+  0.1-    060406 D35  0.4+  0.4+    060407 673  0.1-  0.5+
    060406 854  0.6+  0.2-    060406 D35 (0.6-  2.1-)   060407 673  0.0   0.2+
    060406 854  0.2+  0.1-    060406 D35 (0.1+  2.1+)   060407 673  0.7-  1.0+
    060406 854  0.4+  0.2+    060406 D35  0.5-  1.7-    060407 673  0.4-  0.8-
    060406 854  0.6+  0.3+    060406 D35  0.2-  1.9+    060407 673  0.9-  0.4+
    060406 854  0.1+  0.0     060406 D35  0.8-  1.2-    060407 673  0.8-  0.4-
    060406 854  0.6+  0.8+    060406 D35  0.7+  1.0+    060407 682  0.0   0.5-
    060406 703  0.5+  0.2-    060406 D35  0.5+  1.0-    060407 G96  0.4-  0.1-
    060406 703  0.4-  0.2-    060406 D35 (0.5+  2.7+)   060407 682  0.1-  0.5-
    060406 703  0.2-  0.5-    060406 143  0.4-  0.1-    060407 682  0.0   0.3-
    060406 703  0.0   0.2-    060406 143  0.3-  0.2-    060407 G96  0.1+  0.0
    060406 H06  0.4-  0.2-    060406 198  0.6+  0.4+    060407 G96  0.1+  0.0
    060406 H06  0.3-  0.3-    060406 024  0.2-  0.1-    060407 G96  0.2+  0.1-
    060406 H06  0.0   0.1-    060406 143  0.5-  0.0     060407 428  0.4-  0.2+
    060406 E12  0.1-  0.2+    060406 198  0.9+  0.6+    060407 428  0.6-  0.3+
    060406 E12  0.0   0.2-    060406 024  0.1+  0.0     060407 428  0.3+  0.4-
    060406 E12  0.2+  0.0     060406 198  0.4+  0.5+    060407 428  0.8+  0.4-
    060406 E12  0.3-  0.1-    060406 198  0.5+  0.6+    060407 428  0.4+  0.4+
    060406 D35  1.4+  1.7-    060406 024  0.2-  0.0     060407 428  1.1+  0.1+
    060406 D35 (1.5-  2.5+)   060406 151  0.2+  0.0     060407 E12  0.1-  0.2+
    060406 D35  0.1+  1.7-    060406 151  0.1-  0.1+    060407 E12  0.1+  0.1-
    060406 D35  0.4-  1.2+    060406 151  0.5-  0.4+    060407 E12  0.2+  0.3-
    060406 D35 (1.6+  2.5-)   060407 H98  0.4+  1.4+    060407 E12  0.2-  0.1-
    060406 D35  1.1-  1.7+    060407 H98  0.4+  1.1+
    060406 D35  0.2-  0.8-    060407 H98  0.6-  0.6+
    
    Ephemeris:
    2006 GQ2                 a,e,i = 1.29, 0.47, 26                  q = 0.6886
    Date    TT    R. A. (2000) Decl.     Delta      r     Elong.  Phase     V
    2006 04 05    10 32.30   +27 28.4    0.243    1.177   132.0    39.2    17.0
    2006 04 15    10 31.90   +11 19.2    0.340    1.252   130.6    37.5    17.9
    2006 04 25    10 36.65   +02 15.3    0.457    1.322   125.1    38.5    18.6
    2006 05 05    10 44.38   -03 24.8    0.584    1.389   119.0    39.4    19.3
    2006 05 15    10 54.16   -07 22.1    0.719    1.452   113.1    39.8    19.9
    2006 05 25    11 05.47   -10 23.6    0.858    1.511   107.4    39.8    20.3
    2006 06 04    11 18.02   -12 54.0    1.000    1.565   101.9    39.4    20.7
    2006 06 14    11 31.58   -15 06.3    1.144    1.615    96.6    38.7    21.1
    2006 06 24    11 46.00   -17 07.7    1.287    1.660    91.5    37.7    21.4
    2006 07 04    12 01.21   -19 02.9    1.429    1.702    86.4    36.6    21.6
    2006 07 14    12 17.13   -20 54.4    1.569    1.739    81.5    35.3    21.8
    2006 07 24    12 33.74   -22 43.3    1.705    1.772    76.7    33.9    22.0
    
    Kyle E. Smalley              (C) Copyright 2006 MPC           M.P.E.C. 2006-G26
    

    Read MPEC 2006-G25 Read MPEC 2006-G27


    MPEC number:

    Enter an MPEC number in one of the following forms:

    • 1997-B01 (the full form)
    • J97B01 (the packed version of the full form)
    • B01 (the abbreviated form)